Delta Virtual Airport Information Service

San Jose International Airport

ICAO: KSJC Country: United States
Latitude: 37.3627 Longitude: -121.929
Latest Arrival : SWA2352 (E) (KSAN-KSJC) Latest Departure : SWA1009 (D) (KSJC-KBUR)


WX CaptureLIVE
Data provided by noaa.gov | Fetched at 23:14:05

METAR : KSJC 120353Z 30007KT 10SM CLR 19/09 A2989 RMK AO2 SLP122 T01890094

TAF : KSJC 112339Z 1200/1224 32011KT P6SM FEW100 FM120600 29003KT P6SM SKC FM120900 VRB02KT P6SM SKC FM121200 13005KT P6SM FEW250 FM122100 30008KT P6SM SKC


Runway Data for KSJC
Data provided by openaviationdata.com

Runway ID Mag Var Hdg Length Elevation Surface ILS Freq ILS Id ILS Slope
11 16 122° 4600 ft 62 ft Asphalt -- -- --
12L 16 122° 11003 ft 62 ft Concrete -- -- --
12R 16 122° 11002 ft 62 ft Concrete 110.9 ISLV 3
29 16 302° 4600 ft 62 ft Asphalt -- -- --
30L 16 302° 11002 ft 62 ft Concrete 110.9 ISJC 3
30R 16 302° 11003 ft 62 ft Concrete -- -- --

San Jose International Airport, United States
Use only for reference purposes



Not for navigational purposes.